COSMOS 1275 DEB, 12671

Orbit data source: Space-Track

COSMOS 1275 DEB, 12671 is space debris in LEO originally from a launch on Thu, 04 Jun 1981 UTC launched from the Plesetsk Missile And Space Complex (PKMTR). Debris objects in space refer to the collection of defunct objects orbiting the Earth. Examples of debris include non-operational satellites, rocket bodies, and fragments generated from explosions, collisions, or faulty payload assembly.

Loading next visibility...
Identifier
12671, 1981-053AB
Orbit
LEO
Country
Flag of CISCIS
Related business
Manufacturer
Unknown
Mission
Spacecraft
Bus & Motor
Unknown
Mass
Unknown
Launch date (UTC)
1981-06-04 (45 years ago)
Launch vehicle
Unknown
Launch site
Plesetsk Missile And Space Complex (PKMTR)
Object type
Payload
Rocket body
Debris
Shape & HBR
Unknown shape, 0.1 m
Radar Cross Section
Medium (>0.1 m² and <1 m²)

Expand to show TLE details & history
Last TLE update: 2 days ago

TLE from 2 days ago
0 COSMOS 1275 DEB
1 12671U 81053AB  26171.03243984  .00001063  00000-0  57319-3 0  9992
2 12671  82.9067 186.9701 0016499 249.5327 110.4078 14.11854403280253
Epoch: 2026-06-20T00:46Z
TLE epoch observation values (Epoch: 2026-06-20T00:46:42.802Z)
Latitude
-0.00006°
Longitude
-92.96114°
Altitude
860.161 km
Speed
7.42 km/s
True Right ascension
12h 27m 52s
True Declination
0° 00' 00"
Sunlit
Object was in daylight at epoch
Visualization orbit readout
Latitude
Unknown
Longitude
Unknown
Altitude
Unknown
Speed
Unknown
Apparent Right ascension
Unknown
Apparent Declination
Unknown
Sunlit
N/A
Visualization observer readout
Local Sidereal Time
06:11:56
Azimuth
Unknown
Elevation
Unknown
Doppler factor
Unknown
Orbital elements
Apogee altitude
862.058 km
Perigee altitude
838.206 km
Semi-major axis
7,228.269 km
Eccentricity
0.00165
Inclination
82.9067°
RAAN
186.9701°
Arg. of periapsis
249.5327°
True anomaly
110.58487°
Mean anomaly
110.4078°
Eccentric anomaly
110.49635°
Mean motion
3.53176 °/min
Orbital period
101.93 mins
BSTAR
0.00057319
Loading maneuver chart data...
Computing Atmospheric mass density...

Documentation

Showing up to 5 results
|